sat.trackr.live / text

‹ back to catalog

STARLINK-30988

NORAD 58529 · 2023-191X

PAYLOAD ACTIVE UNKNOWN

§ Identity

Operator
Country
US
Launch date
2023-12-07
Launch site
AFETR
Launch vehicle
Mass (kg)
RCS (m²)

Purposes: comms

External: N2YO · Heavens-Above · Gunter

§ Orbital elements

Epoch: 2026-05-24T22:33:22.372992Z

Period
94.27 min
Inclination
43.0036°
Eccentricity
0.0000821
Mean motion
15.27574934 rev/d
Perigee alt
482.5 km
Apogee alt
483.6 km
Semi-major
6,861.2 km
B*
3.9312e-5
RAAN
32.7346°
Arg perigee
260.2558°
Mean anomaly
99.8201°
Rev number
13,713

§ Raw data

STARLINK-309881 58529U 23191X   26144.93984228  .00000820  00000+0  39312-4 0  99982 58529  43.0036  32.7346 0000821 260.2558  99.8201 15.27574934137132

JSON: /api/v1/satellites/58529 · /tle

For live sub-satellite position, see the globe view (requires WebGL).

§ Visibility from observer

Set your observer location to see the next 7 days of passes ≥ 10°. The values pass through the URL so the page stays shareable.

No JS? Fill the form by hand. The geolocation button needs JavaScript.